Track HAIYANG 2A now! 10-day predictions HAIYANG 2A is classified as:
1 37781U 11043A 25024.95463130 .00000052 00000-0 94187-4 0 9999 2 37781 99.3319 30.8670 0000749 141.7083 218.4121 13.78824095676645